Location: ??
(35.5052°N, 139.7262°E)
Time: 03:34:14
(UTC+00:00)

SJ 16-02 - Pass Details

Date: 20 June 2021
Orbit: 606 x 616 km, 75.0° (Epoch: 26 July)

Event Time Altitude Azimuth Distance (km) Brightness Sun altitude
Rises 15:08:25 0° 338° (NNW) 2,867 5.6 -30.7°
Reaches altitude 10° 15:10:41 10° 335° (NNW) 1,959 4.6 -30.7°
Enters shadow 15:12:40 26° 325° (NW) 1,217 3.2 -30.6°
